COSMOS 2540 (44517 NORAD) Tracking and Keplerian Element Data

This shows tracking and keplerian element data for the satellite.

Feedback or suggestion? Click here.




ElementValue
Catalog44517
NameCOSMOS 2540
Epoch Orbit271
Epoch Day262.2261056
Epoch Year2019
RAAN268.2576
Inclination99.2738
Eccentricity6.4E-05
Argument of Perigee89.9901
Mean Anonmoly270.175
Mean Motion13.85923516
Decay Rate0.00017556
L11 44517U 19057A 19262.22610560 .00017556 00000-0 15284-1 0 9990
L22 44517 99.2738 268.2576 0000640 89.9901 270.1750 13.85923516 2718

Live tracking and technical data element details for COSMOS 2540 (NORAD 44517). COSMOS 2540 can be tracked NOW for your location showing map with azimuth and elevation plus other details from your city location.

Track the satellite on the map from your city or location and see movement details for azimuth, elevation, latitude, longitude, range, height, and movement on the map or in text.







IsCatalogInMostPopularTable: catalog: 44517, numindb: 8
Update: records affected: 1



GetName: 44517 COSMOS 2540

Hit Count: updated at: Thu, 19 Sep 2019 17:35:25 GMT